Home > Weather > Voronezh > Past weeks

Flag for Russia Past Weather in Voronezh, Russia — Yesterday and Last 2 Weeks

Now
77 °F

Sunny.


Feels Like: 79 °F
Forecast: 63 / 84 °F
Wind: No wind

Location: Voronez

Current Time: Jul 27, 2016 at 8:24:45 PM

Latest Report: Jul 27, 2016 at 7:30 PM


Visibility: 10 mi

Pressure: 29.98 "Hg

Humidity: 57%

Dew Point: 61 °F

Location of VoronezhLocation

Past Weather in Voronezh — Graph

°F

Voronezh Temperature Yesterday

Maximum temperature yesterday: 84 °F (at 2:00 PM)
Minimum temperature yesterday: 57 °F (at 3:30 AM)
Average temperature yesterday: 72 °F

High & Low Weather Summary for the Past Weeks

 TemperatureHumidityPressure
High100 °F (Jul 18, 3:00 PM)94% (Jul 19, 9:30 PM)30.04 "Hg (Jul 19, 9:30 PM)
Low55 °F (Jul 21, 3:30 AM)17% (Jul 18, 2:30 PM)29.53 "Hg (Jul 19, 5:00 AM)
Average74 °F66%29.85 "Hg
* Reported Jul 12 7:00 PM — Jul 27 7:00 PM, Voronezh, Weather by CustomWeather, © 2016

Note: Actual official high and low records may vary slightly from our data, if they occured in-between our weather recording intervals... More about our weather records

Advertising

Voronezh Weather History for the Previous 24 Hours

Scroll right to see more
 ConditionsComfort  
Time TempWeatherWind HumidityBarometerVisibility
7:00 PM
Wed, Jul 27
84 °FSunny.No wind40%29.98 "Hg10 mi
6:30 PM84 °FSunny.No wind33%29.98 "Hg10 mi
6:00 PM86 °FSunny.No wind31%29.98 "Hg10 mi
5:30 PM84 °FSunny.1 mph33%29.98 "Hg10 mi
5:00 PM86 °FSunny.1 mph31%29.98 "Hg10 mi
4:30 PM86 °FSunny.No wind31%30.01 "Hg10 mi
4:00 PM84 °FSunny.No wind33%30.01 "Hg10 mi
3:30 PM86 °FSunny.1 mph33%30.01 "Hg10 mi
2:30 PM84 °FPassing clouds.3 mph35%30.01 "HgN/A
2:00 PM86 °FPassing clouds.3 mph33%30.04 "HgN/A
1:30 PM84 °FPassing clouds.3 mph31%30.04 "HgN/A
1:00 PM84 °FPassing clouds.3 mph35%30.04 "HgN/A
12:30 PM84 °FSunny.1 mph35%30.04 "Hg10 mi
12:00 PM84 °FPassing clouds.1 mph35%30.04 "HgN/A
11:30 AM82 °FPassing clouds.3 mph40%30.04 "HgN/A
11:00 AM82 °FPassing clouds.3 mph40%30.04 "HgN/A
10:30 AM81 °FSunny.1 mph45%30.04 "Hg10 mi
10:00 AM81 °FSunny.1 mph48%30.04 "Hg10 mi
9:00 AM77 °FSunny.No wind54%30.04 "Hg10 mi
8:30 AM75 °FSunny.No wind61%30.04 "Hg10 mi
8:00 AM73 °FClear.No wind65%30.04 "Hg6 mi
7:30 AM72 °FSunny.No wind69%30.04 "Hg10 mi
7:00 AM68 °FClear.1 mph78%30.04 "Hg6 mi
6:30 AM64 °FClear.No wind88%30.04 "Hg5 mi
6:00 AM61 °FClear.No wind94%30.04 "Hg6 mi
5:30 AM59 °FClear.No wind94%30.04 "Hg4 mi
5:00 AM59 °FFog.No wind94%30.04 "HgN/A
4:30 AM59 °FClear.3 mph88%30.04 "Hg5 mi
4:00 AM59 °FClear.1 mph94%30.04 "Hg6 mi
3:30 AM59 °FClear.3 mph94%30.04 "Hg6 mi
3:00 AM61 °FClear.3 mph88%30.04 "Hg6 mi
2:30 AM61 °FClear.1 mph94%30.04 "Hg10 mi
2:00 AM61 °FClear.1 mph88%30.04 "Hg10 mi
1:30 AM64 °FClear.No wind78%30.04 "Hg10 mi
1:00 AM63 °FClear.No wind88%30.04 "Hg10 mi
12:30 AM63 °FClear.No wind88%30.04 "Hg10 mi
12:00 AM64 °FClear.No wind83%30.04 "Hg10 mi
11:30 PM
Tue, Jul 26
64 °FClear.No wind83%30.04 "Hg10 mi
11:00 PM64 °FClear.No wind83%30.04 "Hg10 mi
10:30 PM68 °FClear.No wind73%30.04 "Hg10 mi
10:00 PM68 °FClear.No wind73%30.01 "Hg10 mi
9:30 PM68 °FClear.No wind73%30.01 "Hg10 mi
9:00 PM70 °FClear.No wind69%30.01 "Hg10 mi
8:30 PM75 °FClear.3 mph57%30.01 "Hg10 mi
8:00 PM72 °FSunny.No wind73%30.01 "Hg10 mi
Weather by CustomWeather, © 2016

See weather overviewHow to use our weather pages